This demonstration page uses our WeatherBlox Daily Observations layout. Learn more.

Left ArrowRight Arrow

47.50024, -111.30081

Hourly Observations for October 24, 2019

Temp ( °F °C ) Dew Point ( °F °C ) Humidity (%) Winds ( mph kmh ) Pressure ( in mb ) Visibility ( mi km ) Precip ( " mm )
12:53 am 00:53 Mostly Cloudy 30 -1.1 26 -3.3 85 85 SSW 12 19 30.50 1033 10 16 0.00 0.00
1:53 am 01:53 Clear 31 -0.6 24 -4.4 76 76 SW 15 24 30.49 1033 10 16 0.00 0.00
2:53 am 02:53 Mostly Clear 30 -1.1 24 -4.4 79 79 SSW 12 19 30.46 1032 10 16 0.00 0.00
3:53 am 03:53 Clear 30 -1.1 23 -5 75 75 SSW 15 24 30.42 1030 10 16 0.00 0.00
4:53 am 04:53 Clear 31 -0.6 23 -5 72 72 SSW 16 26 30.37 1029 10 16 0.00 0.00
5:53 am 05:53 Clear 31 -0.6 24 -4.4 76 76 SSW 10 17 30.35 1028 10 16 0.00 0.00
6:53 am 06:53 Clear 32 0 25 -3.9 75 75 SSW 15 24 30.32 1027 10 16 0.00 0.00
7:53 am 07:53 Clear 34 1.1 25 -3.9 70 70 SW 17 28 30.30 1026 10 16 0.00 0.00
8:53 am 08:53 Sunny 35 1.7 25 -3.9 67 67 SW 18 30 30.30 1026 10 16 0.00 0.00
9:53 am 09:53 Sunny 39 3.9 27 -2.8 62 62 SSW 17 28 30.29 1026 10 16 0.00 0.00
10:53 am 10:53 Sunny 43 6.1 28 -2.2 56 56 SSW 22 35 30.26 1025 10 16 0.00 0.00
11:53 am 11:53 Sunny 46 7.8 27 -2.8 47 47 SW 22 35 30.25 1024 10 16 0.00 0.00
12:53 pm 12:53 Sunny 50 10 27 -2.8 41 41 SW 22 35 30.24 1024 10 16 0.00 0.00
1:53 pm 13:53 Sunny 50 10 27 -2.8 41 41 SW 25 41 30.20 1023 10 16 0.00 0.00
2:53 pm 14:53 Sunny 51 10.6 28 -2.2 41 41 WSW 28 44 30.19 1022 10 16 0.00 0.00
3:53 pm 15:53 Sunny 52 11.1 30 -1.1 43 43 SSW 23 37 30.19 1022 10 16 0.00 0.00
4:53 pm 16:53 Sunny 52 11.1 30 -1.1 43 43 SW 22 35 30.19 1022 10 16 0.00 0.00
5:53 pm 17:53 Sunny 48 8.9 30 -1.1 50 50 SW 15 24 30.19 1022 10 16 0.00 0.00
6:53 pm 18:53 Clear 46 7.8 29 -1.7 51 51 SW 21 33 30.19 1022 10 16 0.00 0.00
7:53 pm 19:53 Mostly Clear 45 7.2 29 -1.7 54 54 SW 18 30 30.18 1022 10 16 0.00 0.00
8:53 pm 20:53 Clear 45 7.2 30 -1.1 56 56 SW 17 28 30.18 1022 10 16 0.00 0.00
9:53 pm 21:53 Clear 45 7.2 29 -1.7 54 54 SW 17 28 30.18 1022 10 16 0.00 0.00
10:53 pm 22:53 Clear 45 7.2 28 -2.2 52 52 SW 18 30 30.16 1021 10 16 0.00 0.00
11:53 pm 23:53 Clear 45 7.2 29 -1.7 54 54 SSW 16 26 30.16 1021 10 16 0.00 0.00

Powered by AerisWeather